Time,TemperatureF,DewpointF,PressureIn,WindDirection,WindDirectionDegrees,WindSpeedMPH,WindSpeedGustMPH,Humidity,HourlyPrecipIn,Conditions,Clouds,dailyrainin,SolarRadiationWatts/m^2,SoftwareType,DateUTC
2014-10-19 00:06:00,34.4,33.0,30.21,NNW,344,0.0,0.0,93,0.00,,,0.00,0,weatherlink.com 1.10,2014-10-19 05:06:00,
2014-10-19 00:21:00,33.8,32.0,30.21,NNW,343,0.0,0.0,93,0.00,,,0.00,0,weatherlink.com 1.10,2014-10-19 05:21:00,
2014-10-19 00:36:00,33.5,32.0,30.21,NNW,344,0.0,0.0,93,0.00,,,0.00,0,weatherlink.com 1.10,2014-10-19 05:36:00,
2014-10-19 00:51:00,33.7,33.0,30.21,NNW,344,0.0,0.0,95,0.00,,,0.00,0,weatherlink.com 1.10,2014-10-19 05:51:00,
2014-10-19 01:06:00,34.1,33.0,30.21,NNW,344,0.0,0.0,95,0.00,,,0.00,0,weatherlink.com 1.10,2014-10-19 06:06:00,
2014-10-19 01:21:00,33.7,33.0,30.20,NNW,344,0.0,0.0,95,0.00,,,0.00,0,weatherlink.com 1.10,2014-10-19 06:21:00,
2014-10-19 01:36:00,34.0,33.0,30.21,NNW,343,0.0,1.0,96,0.00,,,0.00,0,weatherlink.com 1.10,2014-10-19 06:36:00,
2014-10-19 01:51:00,34.5,33.0,30.20,NNW,343,0.0,0.0,95,0.00,,,0.00,0,weatherlink.com 1.10,2014-10-19 06:51:00,
2014-10-19 02:06:00,34.2,33.0,30.20,NNW,344,0.0,0.0,95,0.00,,,0.00,0,weatherlink.com 1.10,2014-10-19 07:06:00,
2014-10-19 02:21:00,33.7,33.0,30.20,NNW,343,0.0,0.0,95,0.00,,,0.00,0,weatherlink.com 1.10,2014-10-19 07:21:00,
2014-10-19 02:36:00,34.0,33.0,30.20,NNW,343,0.0,0.0,95,0.00,,,0.00,0,weatherlink.com 1.10,2014-10-19 07:36:00,
2014-10-19 02:51:00,34.2,33.0,30.19,NNW,344,0.0,0.0,95,0.00,,,0.00,0,weatherlink.com 1.10,2014-10-19 07:51:00,
2014-10-19 03:06:00,34.1,33.0,30.19,NNW,343,0.0,0.0,95,0.00,,,0.00,0,weatherlink.com 1.10,2014-10-19 08:06:00,
2014-10-19 03:21:00,34.1,33.0,30.19,NNW,343,0.0,0.0,95,0.00,,,0.00,0,weatherlink.com 1.10,2014-10-19 08:21:00,
2014-10-19 03:36:00,33.8,33.0,30.19,NNW,343,0.0,0.0,95,0.00,,,0.00,0,weatherlink.com 1.10,2014-10-19 08:36:00,
2014-10-19 03:51:00,34.0,33.0,30.19,NNW,343,0.0,0.0,96,0.00,,,0.00,0,weatherlink.com 1.10,2014-10-19 08:51:00,
2014-10-19 04:06:00,34.0,33.0,30.19,NNW,343,0.0,0.0,96,0.00,,,0.00,0,weatherlink.com 1.10,2014-10-19 09:06:00,
2014-10-19 04:21:00,33.9,33.0,30.19,NNW,343,0.0,1.0,96,0.00,,,0.00,0,weatherlink.com 1.10,2014-10-19 09:21:00,
2014-10-19 04:36:00,33.7,33.0,30.18,NNW,343,0.0,0.0,96,0.00,,,0.00,0,weatherlink.com 1.10,2014-10-19 09:36:00,
2014-10-19 04:51:00,33.5,33.0,30.18,NNW,343,0.0,0.0,96,0.00,,,0.00,0,weatherlink.com 1.10,2014-10-19 09:51:00,
2014-10-19 05:06:00,33.5,33.0,30.19,NNW,343,0.0,1.0,96,0.00,,,0.00,0,weatherlink.com 1.10,2014-10-19 10:06:00,
2014-10-19 05:21:00,33.4,32.0,30.18,NNW,343,0.0,0.0,96,0.00,,,0.00,0,weatherlink.com 1.10,2014-10-19 10:21:00,
2014-10-19 05:36:00,33.4,32.0,30.19,NNW,343,0.0,1.0,96,0.00,,,0.00,0,weatherlink.com 1.10,2014-10-19 10:36:00,
2014-10-19 05:51:00,33.3,32.0,30.20,NNW,343,0.0,0.0,96,0.00,,,0.00,0,weatherlink.com 1.10,2014-10-19 10:51:00,
2014-10-19 06:06:00,33.1,32.0,30.20,NNW,343,0.0,0.0,96,0.00,,,0.00,0,weatherlink.com 1.10,2014-10-19 11:06:00,
2014-10-19 06:21:00,32.9,32.0,30.20,NNW,343,0.0,0.0,96,0.00,,,0.00,0,weatherlink.com 1.10,2014-10-19 11:21:00,
2014-10-19 06:36:00,33.3,32.0,30.20,NNW,343,0.0,0.0,96,0.00,,,0.00,0,weatherlink.com 1.10,2014-10-19 11:36:00,
2014-10-19 06:51:00,33.4,32.0,30.20,NNW,343,0.0,0.0,96,0.00,,,0.00,0,weatherlink.com 1.10,2014-10-19 11:51:00,
2014-10-19 07:06:00,33.1,32.0,30.20,NNW,343,0.0,0.0,96,0.00,,,0.00,0,weatherlink.com 1.10,2014-10-19 12:06:00,
2014-10-19 07:21:00,33.1,32.0,30.20,NNW,343,0.0,0.0,96,0.00,,,0.00,5,weatherlink.com 1.10,2014-10-19 12:21:00,
2014-10-19 07:36:00,33.2,32.0,30.20,NNW,343,0.0,0.0,96,0.00,,,0.00,18,weatherlink.com 1.10,2014-10-19 12:36:00,
2014-10-19 07:51:00,33.6,33.0,30.19,NNW,343,0.0,0.0,96,0.00,,,0.00,35,weatherlink.com 1.10,2014-10-19 12:51:00,
2014-10-19 08:06:00,34.1,33.0,30.19,NNW,343,0.0,0.0,97,0.00,,,0.00,47,weatherlink.com 1.10,2014-10-19 13:06:00,
2014-10-19 08:21:00,34.8,34.0,30.19,NNW,337,0.0,1.0,97,0.00,,,0.00,56,weatherlink.com 1.10,2014-10-19 13:21:00,
2014-10-19 08:36:00,35.2,34.0,30.19,NNW,329,0.0,1.0,96,0.00,,,0.00,60,weatherlink.com 1.10,2014-10-19 13:36:00,
2014-10-19 08:52:00,36.0,35.0,30.19,WSW,253,0.0,1.0,97,0.00,,,0.00,74,weatherlink.com 1.10,2014-10-19 13:52:00,
2014-10-19 09:07:00,37.3,37.0,30.18,WSW,253,0.0,1.0,97,0.00,,,0.00,88,weatherlink.com 1.10,2014-10-19 14:07:00,
2014-10-19 09:22:00,38.9,38.0,30.18,WSW,252,1.0,1.0,97,0.00,,,0.00,114,weatherlink.com 1.10,2014-10-19 14:22:00,
2014-10-19 09:37:00,40.7,40.0,30.17,WSW,252,0.0,2.0,97,0.00,,,0.00,128,weatherlink.com 1.10,2014-10-19 14:37:00,
2014-10-19 09:52:00,41.9,41.0,30.17,SSW,201,0.0,2.0,96,0.00,,,0.00,139,weatherlink.com 1.10,2014-10-19 14:52:00,
2014-10-19 10:07:00,43.0,42.0,30.17,SSW,195,0.0,2.0,95,0.00,,,0.00,181,weatherlink.com 1.10,2014-10-19 15:07:00,
2014-10-19 10:22:00,45.0,43.0,30.16,SSW,205,4.0,4.0,93,0.00,,,0.00,171,weatherlink.com 1.10,2014-10-19 15:22:00,
2014-10-19 10:37:00,46.1,44.0,30.15,SSW,211,1.0,3.0,91,0.00,,,0.00,190,weatherlink.com 1.10,2014-10-19 15:37:00,
2014-10-19 10:52:00,47.4,44.0,30.14,SSW,211,1.0,3.0,89,0.00,,,0.00,232,weatherlink.com 1.10,2014-10-19 15:52:00,
2014-10-19 11:07:00,47.9,45.0,30.13,SSW,211,0.0,3.0,89,0.00,,,0.00,186,weatherlink.com 1.10,2014-10-19 16:07:00,
2014-10-19 11:22:00,48.6,45.0,30.12,South,178,2.0,5.0,86,0.00,,,0.00,211,weatherlink.com 1.10,2014-10-19 16:22:00,
2014-10-19 11:37:00,49.3,45.0,30.11,SSW,197,1.0,5.0,86,0.00,,,0.00,199,weatherlink.com 1.10,2014-10-19 16:37:00,
2014-10-19 11:52:00,50.4,46.0,30.11,SSW,212,1.0,8.0,84,0.00,,,0.00,193,weatherlink.com 1.10,2014-10-19 16:52:00,
2014-10-19 12:07:00,51.0,47.0,30.11,SSW,212,2.0,7.0,85,0.00,,,0.00,151,weatherlink.com 1.10,2014-10-19 17:07:00,
2014-10-19 12:23:00,52.4,47.0,30.10,SW,224,2.0,6.0,83,0.00,,,0.00,269,weatherlink.com 1.10,2014-10-19 17:23:00,
2014-10-19 12:38:00,52.3,46.0,30.09,SSW,202,2.0,7.0,80,0.00,,,0.00,204,weatherlink.com 1.10,2014-10-19 17:38:00,
2014-10-19 12:53:00,52.3,46.0,30.08,South,183,2.0,6.0,79,0.00,,,0.00,185,weatherlink.com 1.10,2014-10-19 17:53:00,
2014-10-19 13:08:00,53.5,47.0,30.07,SSW,211,4.0,6.0,78,0.00,,,0.00,260,weatherlink.com 1.10,2014-10-19 18:08:00,
2014-10-19 13:23:00,53.5,46.0,30.06,SW,216,2.0,7.0,76,0.00,,,0.00,262,weatherlink.com 1.10,2014-10-19 18:23:00,
2014-10-19 13:38:00,53.8,46.0,30.05,South,178,3.0,6.0,75,0.00,,,0.00,373,weatherlink.com 1.10,2014-10-19 18:38:00,
2014-10-19 13:53:00,53.9,46.0,30.04,SSW,205,2.0,7.0,75,0.00,,,0.00,214,weatherlink.com 1.10,2014-10-19 18:53:00,
2014-10-19 14:08:00,54.3,46.0,30.03,SSE,159,2.0,5.0,74,0.00,,,0.00,241,weatherlink.com 1.10,2014-10-19 19:08:00,
2014-10-19 14:23:00,54.6,46.0,30.01,South,173,3.0,5.0,74,0.00,,,0.00,343,weatherlink.com 1.10,2014-10-19 19:23:00,
2014-10-19 14:38:00,54.8,46.0,30.00,South,171,2.0,4.0,71,0.00,,,0.00,158,weatherlink.com 1.10,2014-10-19 19:38:00,
2014-10-19 14:53:00,55.4,46.0,29.99,South,169,4.0,6.0,70,0.00,,,0.00,220,weatherlink.com 1.10,2014-10-19 19:53:00,
2014-10-19 15:08:00,55.3,45.0,29.98,South,181,3.0,5.0,68,0.00,,,0.00,176,weatherlink.com 1.10,2014-10-19 20:08:00,
2014-10-19 15:23:00,54.7,46.0,29.97,South,188,3.0,6.0,72,0.00,,,0.00,169,weatherlink.com 1.10,2014-10-19 20:23:00,
2014-10-19 15:38:00,54.7,45.0,29.96,South,169,1.0,5.0,70,0.00,,,0.00,181,weatherlink.com 1.10,2014-10-19 20:38:00,
2014-10-19 15:53:00,54.5,45.0,29.96,SSE,157,3.0,5.0,71,0.00,,,0.00,84,weatherlink.com 1.10,2014-10-19 20:53:00,
2014-10-19 16:08:00,54.1,45.0,29.96,South,189,2.0,5.0,71,0.00,,,0.00,123,weatherlink.com 1.10,2014-10-19 21:08:00,
2014-10-19 16:23:00,54.2,45.0,29.95,SSE,167,1.0,5.0,70,0.00,,,0.00,214,weatherlink.com 1.10,2014-10-19 21:23:00,
2014-10-19 16:38:00,53.8,45.0,29.94,South,173,2.0,5.0,72,0.00,,,0.00,86,weatherlink.com 1.10,2014-10-19 21:38:00,
2014-10-19 16:53:00,54.1,45.0,29.93,South,189,2.0,5.0,71,0.00,,,0.00,84,weatherlink.com 1.10,2014-10-19 21:53:00,
2014-10-19 17:08:00,54.0,45.0,29.93,South,175,3.0,4.0,72,0.00,,,0.00,97,weatherlink.com 1.10,2014-10-19 22:08:00,
2014-10-19 17:24:00,54.5,45.0,29.92,SSW,196,3.0,4.0,70,0.00,,,0.00,49,weatherlink.com 1.10,2014-10-19 22:24:00,
2014-10-19 17:39:00,54.2,45.0,29.91,South,182,2.0,4.0,70,0.00,,,0.00,35,weatherlink.com 1.10,2014-10-19 22:39:00,
2014-10-19 17:54:00,53.5,45.0,29.92,SSW,210,3.0,5.0,72,0.00,,,0.00,7,weatherlink.com 1.10,2014-10-19 22:54:00,
2014-10-19 18:09:00,53.1,45.0,29.93,SSW,209,1.0,4.0,73,0.00,,,0.00,0,weatherlink.com 1.10,2014-10-19 23:09:00,
2014-10-19 18:24:00,52.8,45.0,29.93,SSW,203,2.0,4.0,75,0.00,,,0.00,0,weatherlink.com 1.10,2014-10-19 23:24:00,
2014-10-19 18:39:00,52.8,45.0,29.93,SW,215,0.0,3.0,75,0.00,,,0.00,0,weatherlink.com 1.10,2014-10-19 23:39:00,
2014-10-19 18:54:00,52.7,45.0,29.92,SSW,203,1.0,2.0,76,0.00,,,0.00,0,weatherlink.com 1.10,2014-10-19 23:54:00,
2014-10-19 19:09:00,52.4,45.0,29.92,SSW,203,0.0,2.0,76,0.00,,,0.00,0,weatherlink.com 1.10,2014-10-20 00:09:00,
2014-10-19 19:24:00,52.1,45.0,29.92,South,191,0.0,3.0,77,0.00,,,0.00,0,weatherlink.com 1.10,2014-10-20 00:24:00,
2014-10-19 19:39:00,51.9,45.0,29.92,South,191,0.0,2.0,77,0.00,,,0.00,0,weatherlink.com 1.10,2014-10-20 00:39:00,
2014-10-19 19:53:00,51.8,45.0,29.91,South,188,0.0,2.0,77,0.00,,,0.00,0,weatherlink.com 1.10,2014-10-20 00:53:00,
2014-10-19 20:08:00,51.5,45.0,29.91,South,169,1.0,3.0,78,0.00,,,0.00,0,weatherlink.com 1.10,2014-10-20 01:08:00,
2014-10-19 20:23:00,51.3,45.0,29.90,SSW,196,1.0,2.0,78,0.00,,,0.00,0,weatherlink.com 1.10,2014-10-20 01:23:00,
2014-10-19 20:38:00,51.3,45.0,29.89,South,173,0.0,2.0,79,0.00,,,0.00,0,weatherlink.com 1.10,2014-10-20 01:38:00,
2014-10-19 20:53:00,51.2,45.0,29.89,South,180,0.0,2.0,79,0.00,,,0.00,0,weatherlink.com 1.10,2014-10-20 01:53:00,
2014-10-19 21:08:00,51.3,45.0,29.89,South,175,1.0,2.0,80,0.00,,,0.00,0,weatherlink.com 1.10,2014-10-20 02:08:00,
2014-10-19 21:23:00,50.9,45.0,29.88,South,183,0.0,2.0,81,0.00,,,0.00,0,weatherlink.com 1.10,2014-10-20 02:23:00,
2014-10-19 21:38:00,50.7,45.0,29.87,South,178,0.0,3.0,81,0.00,,,0.00,0,weatherlink.com 1.10,2014-10-20 02:38:00,
2014-10-19 21:53:00,50.5,45.0,29.87,SSE,162,0.0,3.0,81,0.00,,,0.00,0,weatherlink.com 1.10,2014-10-20 02:53:00,
2014-10-19 22:08:00,50.3,45.0,29.86,SSE,152,0.0,2.0,82,0.00,,,0.00,0,weatherlink.com 1.10,2014-10-20 03:08:00,
2014-10-19 22:23:00,50.3,45.0,29.85,SSE,161,0.0,2.0,82,0.00,,,0.00,0,weatherlink.com 1.10,2014-10-20 03:23:00,
2014-10-19 22:38:00,50.1,45.0,29.85,SSW,209,1.0,3.0,82,0.00,,,0.00,0,weatherlink.com 1.10,2014-10-20 03:38:00,
2014-10-19 22:53:00,49.8,45.0,29.84,SSW,199,1.0,2.0,83,0.00,,,0.00,0,weatherlink.com 1.10,2014-10-20 03:53:00,
2014-10-19 23:09:00,49.3,45.0,29.84,SSW,197,0.0,2.0,84,0.00,,,0.00,0,weatherlink.com 1.10,2014-10-20 04:09:00,
2014-10-19 23:24:00,49.0,45.0,29.84,SSW,198,1.0,2.0,85,0.00,,,0.00,0,weatherlink.com 1.10,2014-10-20 04:24:00,
2014-10-19 23:39:00,48.7,45.0,29.83,SSW,198,0.0,2.0,86,0.00,,,0.00,0,weatherlink.com 1.10,2014-10-20 04:39:00,
2014-10-19 23:54:00,48.4,44.0,29.83,SSW,198,0.0,1.0,86,0.00,,,0.00,0,weatherlink.com 1.10,2014-10-20 04:54:00,